{"data":{"norad_id":59498,"intl_designator":"2024-071Q","name":"STARLINK-31731","alt_names":[],"object_type":"PAYLOAD","status":"ACTIVE","operator":null,"country":"US","launch_date":"2024-04-13","launch_site_code":"AFETR","launch_vehicle":null,"mission":null,"orbit_class":"UNKNOWN","rcs_meters":null,"size_class":null,"mass_kg":null,"dimensions":null,"purposes":["comms"],"wikipedia_slug":null,"has_3d_model":false,"image_url":null,"decayed_at":null,"tle_current":{"epoch":"2026-05-24T18:16:42.739392Z","epoch_age_seconds":106368,"freshness":"FRESH","line1":"1 59498U 24071Q   26144.76160578 -.00000316  00000+0 -19572-5 0  9996","line2":"2 59498  42.9999 269.8012 0001225 270.8254  89.2458 15.27579517119843","mean_motion":15.27579517,"eccentricity":0.0001225,"inclination_deg":42.9999,"raan_deg":269.8012,"arg_perigee_deg":270.8254,"mean_anomaly_deg":89.2458,"bstar":-1.9572e-6,"rev_number":11984,"period_min":94.266778519524,"perigee_km":482.21004684186,"apogee_km":483.89103778973,"semimajor_km":6861.1875423158,"source":"CELESTRAK","updated_at":"2026-05-25T13:38:18.971509Z"}}}